| time (UTC) | temp C | wind direction | speed KPH | gust KPH | rain 1hr cm | rain 24hr cm | rain mn cm | humidity % | barometer mb |
| 20260504100508 | 8 | 263 | 4.8 | 9.7 | 0.00 | 0.00 | 0.00 | 52 | 1012.9 |
| 20260504082003 | 8 | 248 | 3.2 | 9.7 | 0.00 | 0.00 | 0.00 | 51 | 1013.2 |
| 20260504081513 | 8 | 253 | 1.6 | 9.7 | 0.00 | 0.00 | 0.00 | 52 | 1013.3 |
| 20260504081005 | 8 | 282 | 1.6 | 9.7 | 0.00 | 0.00 | 0.00 | 52 | 1013.3 |
| 20260504080506 | 8 | 245 | 1.6 | 8.0 | 0.00 | 0.00 | 0.00 | 51 | 1013.3 |
| 20260504050508 | 10 | 257 | 6.4 | 14.5 | 0.00 | 0.00 | 0.00 | 47 | 1013.2 |
| 20260504045509 | 10 | 255 | 8.0 | 14.5 | 0.00 | 0.00 | 0.00 | 47 | 1013.3 |
| 20260504045010 | 10 | 214 | 8.0 | 14.5 | 0.00 | 0.00 | 0.00 | 48 | 1013.2 |
| 20260504044515 | 9 | 257 | 8.0 | 11.3 | 0.00 | 0.00 | 0.00 | 48 | 1013.3 |
| 20260504044010 | 9 | 249 | 6.4 | 11.3 | 0.00 | 0.00 | 0.00 | 48 | 1013.2 |
| 20260504043507 | 9 | 256 | 4.8 | 9.7 | 0.00 | 0.00 | 0.00 | 49 | 1013.2 |
| 20260504043021 | 9 | 259 | 4.8 | 9.7 | 0.00 | 0.00 | 0.00 | 50 | 1013.2 |
| 20260504042505 | 8 | 267 | 3.2 | 8.0 | 0.00 | 0.00 | 0.00 | 50 | 1013.2 |
| 20260504042005 | 8 | 246 | 3.2 | 6.4 | 0.00 | 0.00 | 0.00 | 51 | 1013.1 |
| 20260504041524 | 8 | 267 | 3.2 | 6.4 | 0.00 | 0.00 | 0.00 | 53 | 1013.1 |
| 20260504041006 | 8 | 254 | 3.2 | 6.4 | 0.00 | 0.00 | 0.00 | 52 | 1013.1 |
| 20260504040507 | 8 | 279 | 1.6 | 6.4 | 0.00 | 0.00 | 0.00 | 52 | 1013.1 |
| 20260504040027 | 8 | 281 | 0.0 | 3.2 | 0.00 | 0.00 | 0.00 | 54 | 1013.1 |
| 20260504035513 | 8 | 267 | 0.0 | 3.2 | 0.00 | 0.00 | 0.00 | 54 | 1013.1 |
| 20260504035008 | 8 | 275 | 0.0 | 3.2 | 0.00 | 0.00 | 0.00 | 53 | 1013.1 |
| 20260504034533 | 8 | 269 | 0.0 | 3.2 | 0.00 | 0.00 | 0.00 | 53 | 1013.0 |
| 20260504034008 | 8 | 269 | 0.0 | 3.2 | 0.00 | 0.00 | 0.00 | 52 | 1012.9 |
| 20260504033508 | 8 | 275 | 0.0 | 1.6 | 0.00 | 0.00 | 0.00 | 53 | 1012.8 |
| 20260504033041 | 8 | 288 | 0.0 | 0.0 | 0.00 | 0.00 | 0.00 | 53 | 1012.8 |
| 20260504032506 | 8 | 288 | 0.0 | 1.6 | 0.00 | 0.00 | 0.00 | 52 | 1012.9 |
| 20260504032006 | 8 | 288 | 0.0 | 1.6 | 0.00 | 0.00 | 0.00 | 53 | 1012.8 |
| 20260504031507 | 8 | 263 | 0.0 | 1.6 | 0.00 | 0.00 | 0.00 | 51 | 1012.8 |
| 20260504031005 | 8 | 263 | 0.0 | 1.6 | 0.00 | 0.00 | 0.00 | 50 | 1012.8 |
| 20260504030502 | 8 | 247 | 0.0 | 3.2 | 0.00 | 0.00 | 0.00 | 50 | 1012.8 |
| 20260504030007 | 9 | 286 | 0.0 | 4.8 | 0.00 | 0.00 | 0.00 | 50 | 1012.8 |
| 20260504025504 | 9 | 262 | 0.0 | 4.8 | 0.00 | 0.00 | 0.00 | 50 | 1012.7 |
| 20260504025005 | 9 | 301 | 0.0 | 4.8 | 0.00 | 0.00 | 0.00 | 51 | 1012.8 |
| 20260504024534 | 9 | 263 | 0.0 | 4.8 | 0.00 | 0.00 | 0.00 | 49 | 1012.7 |
| 20260504024007 | 10 | 232 | 1.6 | 4.8 | 0.00 | 0.00 | 0.00 | 48 | 1012.8 |
| 20260504023504 | 10 | 259 | 0.0 | 6.4 | 0.00 | 0.00 | 0.00 | 48 | 1012.8 |
| 20260504023017 | 10 | 265 | 0.0 | 6.4 | 0.00 | 0.00 | 0.00 | 47 | 1012.9 |
| 20260504022505 | 10 | 255 | 1.6 | 4.8 | 0.00 | 0.00 | 0.00 | 47 | 1012.8 |
| 20260504022012 | 10 | 246 | 1.6 | 4.8 | 0.00 | 0.00 | 0.00 | 47 | 1012.9 |
| 20260504021519 | 10 | 269 | 0.0 | 11.3 | 0.00 | 0.00 | 0.00 | 47 | 1012.8 |
| 20260504021007 | 10 | 269 | 1.6 | 11.3 | 0.00 | 0.00 | 0.00 | 46 | 1012.8 |
| 20260504020507 | 10 | 241 | 1.6 | 6.4 | 0.00 | 0.00 | 0.00 | 46 | 1012.8 |
| 20260504020004 | 10 | 263 | 4.8 | 6.4 | 0.00 | 0.00 | 0.00 | 45 | 1012.7 |
| 20260504015503 | 10 | 249 | 1.6 | 11.3 | 0.00 | 0.00 | 0.00 | 45 | 1012.7 |
| 20260504015003 | 10 | 252 | 4.8 | 12.9 | 0.00 | 0.00 | 0.00 | 45 | 1012.7 |
| 20260504014510 | 10 | 252 | 6.4 | 12.9 | 0.00 | 0.00 | 0.00 | 46 | 1012.7 |
| 20260504014007 | 10 | 223 | 1.6 | 9.7 | 0.00 | 0.00 | 0.00 | 46 | 1012.7 |
| 20260504013506 | 10 | 257 | 4.8 | 11.3 | 0.00 | 0.00 | 0.00 | 45 | 1012.6 |
| 20260504013017 | 10 | 247 | 4.8 | 11.3 | 0.00 | 0.00 | 0.00 | 44 | 1012.7 |
| 20260504012505 | 10 | 257 | 4.8 | 11.3 | 0.00 | 0.00 | 0.00 | 45 | 1012.6 |
| 20260504012007 | 10 | 250 | 4.8 | 9.7 | 0.00 | 0.00 | 0.00 | 44 | 1012.5 |
| 20260504011517 | 10 | 261 | 3.2 | 9.7 | 0.00 | 0.00 | 0.00 | 44 | 1012.4 |
| 20260504011006 | 10 | 246 | 4.8 | 9.7 | 0.00 | 0.00 | 0.00 | 44 | 1012.4 |
| 20260504010512 | 10 | 252 | 3.2 | 6.4 | 0.00 | 0.00 | 0.00 | 45 | 1012.4 |
| 20260504010020 | 10 | 254 | 3.2 | 6.4 | 0.00 | 0.00 | 0.00 | 45 | 1012.3 |
| 20260504005507 | 10 | 270 | 3.2 | 6.4 | 0.00 | 0.00 | 0.00 | 45 | 1012.3 |
| 20260504005007 | 10 | 267 | 1.6 | 6.4 | 0.00 | 0.00 | 0.00 | 46 | 1012.3 |
| 20260504004538 | 10 | 258 | 3.2 | 6.4 | 0.00 | 0.00 | 0.00 | 45 | 1012.2 |
| 20260504004003 | 10 | 254 | 0.0 | 6.4 | 0.00 | 0.00 | 0.00 | 45 | 1012.2 |
| 20260504003505 | 10 | 236 | 1.6 | 6.4 | 0.00 | 0.00 | 0.00 | 44 | 1012.2 |
| 20260504003011 | 10 | 246 | 1.6 | 6.4 | 0.00 | 0.00 | 0.00 | 44 | 1012.1 |
| 20260504002506 | 11 | 254 | 1.6 | 4.8 | 0.00 | 0.00 | 0.00 | 43 | 1012.1 |
| 20260504002005 | 11 | 273 | 1.6 | 4.8 | 0.00 | 0.00 | 0.00 | 44 | 1012.0 |
| 20260504001514 | 11 | 273 | 0.0 | 4.8 | 0.00 | 0.00 | 0.00 | 44 | 1012.1 |
| 20260504001010 | 11 | 271 | 1.6 | 8.0 | 0.00 | 0.00 | 0.00 | 42 | 1012.1 |
| 20260504000505 | 11 | 259 | 3.2 | 8.0 | 0.00 | 0.00 | 0.00 | 42 | 1012.0 |
| 20260504000021 | 11 | 238 | 1.6 | 6.4 | 0.00 | 0.00 | 0.00 | 42 | 1012.0 |
| 20260503235506 | 11 | 263 | 1.6 | 6.4 | 0.00 | 0.00 | 0.00 | 42 | 1012.0 |
| 20260503235010 | 11 | 247 | 3.2 | 6.4 | 0.00 | 0.00 | 0.00 | 42 | 1012.0 |
| 20260503234529 | 11 | 252 | 1.6 | 6.4 | 0.00 | 0.00 | 0.00 | 41 | 1012.0 |
| 20260503234007 | 11 | 262 | 0.0 | 6.4 | 0.00 | 0.00 | 0.00 | 42 | 1012.0 |
| 20260503233503 | 11 | 263 | 3.2 | 6.4 | 0.00 | 0.00 | 0.00 | 42 | 1012.0 |
| 20260503233007 | 11 | 263 | 0.0 | 6.4 | 0.00 | 0.00 | 0.00 | 42 | 1011.9 |
| 20260503232504 | 12 | 263 | 1.6 | 6.4 | 0.00 | 0.00 | 0.00 | 41 | 1011.8 |
| 20260503232004 | 12 | 259 | 1.6 | 4.8 | 0.00 | 0.00 | 0.00 | 41 | 1011.7 |
| 20260503231514 | 12 | 231 | 1.6 | 4.8 | 0.00 | 0.00 | 0.00 | 41 | 1011.7 |
| 20260503231007 | 12 | 275 | 0.0 | 3.2 | 0.00 | 0.00 | 0.00 | 40 | 1011.7 |
| 20260503230505 | 12 | 269 | 0.0 | 4.8 | 0.00 | 0.00 | 0.00 | 41 | 1011.7 |
| 20260503230018 | 12 | 258 | 1.6 | 4.8 | 0.00 | 0.00 | 0.00 | 39 | 1011.6 |
| 20260503225505 | 12 | 283 | 1.6 | 3.2 | 0.00 | 0.00 | 0.00 | 40 | 1011.7 |
| 20260503225008 | 12 | 352 | 1.6 | 4.8 | 0.00 | 0.00 | 0.00 | 41 | 1011.8 |
| 20260503224521 | 12 | 254 | 1.6 | 4.8 | 0.00 | 0.00 | 0.00 | 39 | 1011.7 |
| 20260503224008 | 12 | 273 | 1.6 | 4.8 | 0.00 | 0.00 | 0.00 | 39 | 1011.7 |
| 20260503223507 | 12 | 276 | 1.6 | 9.7 | 0.00 | 0.00 | 0.00 | 39 | 1011.7 |
| 20260503223025 | 12 | 284 | 0.0 | 9.7 | 0.00 | 0.00 | 0.00 | 39 | 1011.7 |
| 20260503222506 | 12 | 127 | 1.6 | 11.3 | 0.00 | 0.00 | 0.00 | 40 | 1011.7 |
| 20260503222004 | 12 | 231 | 3.2 | 11.3 | 0.00 | 0.00 | 0.00 | 39 | 1011.6 |
| 20260503221510 | 12 | 281 | 1.6 | 11.3 | 0.00 | 0.00 | 0.00 | 37 | 1011.6 |
| 20260503221004 | 13 | 263 | 3.2 | 6.4 | 0.00 | 0.00 | 0.00 | 36 | 1011.7 |
| 20260503220504 | 13 | 293 | 0.0 | 4.8 | 0.00 | 0.00 | 0.00 | 38 | 1011.7 |
| 20260503220016 | 13 | 257 | 1.6 | 4.8 | 0.00 | 0.00 | 0.00 | 38 | 1011.7 |
| 20260503215505 | 13 | 318 | 1.6 | 12.9 | 0.00 | 0.00 | 0.00 | 38 | 1011.6 |
| 20260503215005 | 13 | 265 | 3.2 | 12.9 | 0.00 | 0.00 | 0.00 | 37 | 1011.6 |
| 20260503214519 | 13 | 279 | 1.6 | 11.3 | 0.00 | 0.00 | 0.00 | 39 | 1011.6 |
| 20260503214011 | 13 | 255 | 4.8 | 9.7 | 0.00 | 0.00 | 0.00 | 37 | 1011.5 |
| 20260503213512 | 13 | 205 | 3.2 | 8.0 | 0.00 | 0.00 | 0.00 | 38 | 1011.4 |
| 20260503213028 | 13 | 110 | 3.2 | 8.0 | 0.00 | 0.00 | 0.00 | 37 | 1011.4 |
| 20260503212507 | 13 | 277 | 3.2 | 16.1 | 0.00 | 0.00 | 0.00 | 36 | 1011.3 |
| 20260503212010 | 13 | 242 | 3.2 | 16.1 | 0.00 | 0.00 | 0.00 | 38 | 1011.3 |
| 20260503211536 | 13 | 261 | 3.2 | 12.9 | 0.00 | 0.00 | 0.00 | 37 | 1011.1 |
| 20260503211010 | 13 | 273 | 1.6 | 12.9 | 0.00 | 0.00 | 0.00 | 36 | 1011.2 |
| 20260503210504 | 13 | 271 | 3.2 | 8.0 | 0.00 | 0.00 | 0.00 | 38 | 1011.3 |
| 20260503210012 | 13 | 292 | 3.2 | 8.0 | 0.00 | 0.00 | 0.00 | 35 | 1011.4 |
| 20260503205506 | 13 | 271 | 3.2 | 8.0 | 0.00 | 0.00 | 0.00 | 36 | 1011.4 |
| 20260503205004 | 13 | 227 | 1.6 | 6.4 | 0.00 | 0.00 | 0.00 | 37 | 1011.4 |
| 20260503204520 | 14 | 338 | 1.6 | 6.4 | 0.00 | 0.00 | 0.00 | 35 | 1011.4 |
| 20260503204009 | 14 | 223 | 3.2 | 11.3 | 0.00 | 0.00 | 0.00 | 34 | 1011.5 |
| 20260503203507 | 14 | 275 | 1.6 | 11.3 | 0.00 | 0.00 | 0.00 | 39 | 1011.5 |
| 20260503203024 | 14 | 241 | 4.8 | 9.7 | 0.00 | 0.00 | 0.00 | 35 | 1011.5 |
| 20260503202508 | 14 | 300 | 3.2 | 9.7 | 0.00 | 0.00 | 0.00 | 35 | 1011.5 |
| 20260503202012 | 14 | 270 | 3.2 | 12.9 | 0.00 | 0.00 | 0.00 | 36 | 1011.5 |
| 20260503201525 | 14 | 252 | 1.6 | 19.3 | 0.00 | 0.00 | 0.00 | 38 | 1011.5 |
| 20260503201006 | 15 | 243 | 4.8 | 19.3 | 0.00 | 0.00 | 0.00 | 35 | 1011.4 |
| 20260503200513 | 14 | 299 | 3.2 | 9.7 | 0.00 | 0.00 | 0.00 | 36 | 1011.4 |
| 20260503200028 | 14 | 279 | 4.8 | 9.7 | 0.00 | 0.00 | 0.00 | 36 | 1011.2 |
| 20260503195507 | 14 | 236 | 1.6 | 8.0 | 0.00 | 0.00 | 0.00 | 37 | 1011.6 |
| 20260503195006 | 14 | 229 | 3.2 | 14.5 | 0.00 | 0.00 | 0.00 | 34 | 1011.8 |
| 20260503194515 | 14 | 217 | 3.2 | 14.5 | 0.00 | 0.00 | 0.00 | 34 | 1011.8 |
| 20260503194006 | 14 | 235 | 4.8 | 12.9 | 0.00 | 0.00 | 0.00 | 36 | 1011.9 |
| 20260503193509 | 13 | 269 | 3.2 | 6.4 | 0.00 | 0.00 | 0.00 | 35 | 1011.9 |
| 20260503193011 | 13 | 250 | 3.2 | 9.7 | 0.00 | 0.00 | 0.00 | 35 | 1011.9 |
| 20260503192502 | 13 | 263 | 3.2 | 11.3 | 0.00 | 0.00 | 0.00 | 40 | 1012.0 |
| 20260503192002 | 13 | 274 | 3.2 | 11.3 | 0.00 | 0.00 | 0.00 | 36 | 1011.9 |
| 20260503191506 | 13 | 243 | 4.8 | 11.3 | 0.00 | 0.00 | 0.00 | 37 | 1012.0 |
| 20260503191006 | 13 | 277 | 3.2 | 14.5 | 0.00 | 0.00 | 0.00 | 34 | 1012.0 |
| 20260503190512 | 13 | 342 | 4.8 | 14.5 | 0.00 | 0.00 | 0.00 | 36 | 1012.1 |
| 20260503190018 | 13 | 309 | 6.4 | 12.9 | 0.00 | 0.00 | 0.00 | 34 | 1012.2 |
| 20260503185504 | 13 | 259 | 3.2 | 12.9 | 0.00 | 0.00 | 0.00 | 36 | 1012.1 |
| 20260503185003 | 13 | 305 | 3.2 | 9.7 | 0.00 | 0.00 | 0.00 | 38 | 1012.3 |
| 20260503184517 | 13 | 279 | 3.2 | 9.7 | 0.00 | 0.00 | 0.00 | 35 | 1012.2 |
| 20260503184006 | 13 | 159 | 1.6 | 14.5 | 0.00 | 0.00 | 0.00 | 38 | 1012.4 |
| 20260503183507 | 13 | 242 | 4.8 | 14.5 | 0.00 | 0.00 | 0.00 | 38 | 1012.4 |
| 20260503183029 | 13 | 336 | 3.2 | 9.7 | 0.00 | 0.00 | 0.00 | 39 | 1012.5 |
| 20260503182504 | 13 | 232 | 1.6 | 12.9 | 0.00 | 0.00 | 0.00 | 38 | 1012.6 |
| 20260503182014 | 13 | 257 | 3.2 | 12.9 | 0.00 | 0.00 | 0.00 | 42 | 1012.7 |
| 20260503181525 | 13 | 261 | 3.2 | 11.3 | 0.00 | 0.00 | 0.00 | 42 | 1012.7 |
| 20260503181004 | 12 | 263 | 3.2 | 12.9 | 0.00 | 0.00 | 0.00 | 41 | 1012.6 |
| 20260503180511 | 12 | 227 | 4.8 | 12.9 | 0.00 | 0.00 | 0.00 | 38 | 1012.7 |
| 20260503180008 | 12 | 275 | 1.6 | 12.9 | 0.00 | 0.00 | 0.00 | 42 | 1012.7 |
| 20260503175506 | 12 | 273 | 4.8 | 11.3 | 0.00 | 0.00 | 0.00 | 40 | 1012.7 |
| 20260503175009 | 12 | 214 | 6.4 | 11.3 | 0.00 | 0.00 | 0.00 | 37 | 1012.7 |
| 20260503174511 | 12 | 218 | 3.2 | 9.7 | 0.00 | 0.00 | 0.00 | 39 | 1012.9 |
| 20260503174006 | 11 | 280 | 3.2 | 12.9 | 0.00 | 0.00 | 0.00 | 39 | 1012.9 |
| 20260503173507 | 11 | 318 | 1.6 | 12.9 | 0.00 | 0.00 | 0.00 | 39 | 1013.0 |
| 20260503173019 | 11 | 278 | 4.8 | 12.9 | 0.00 | 0.00 | 0.00 | 42 | 1013.0 |
| 20260503172506 | 11 | 215 | 1.6 | 12.9 | 0.00 | 0.00 | 0.00 | 38 | 1013.0 |
| 20260503172010 | 12 | 166 | 4.8 | 12.9 | 0.00 | 0.00 | 0.00 | 37 | 1013.0 |
| 20260503171504 | 12 | 257 | 4.8 | 12.9 | 0.00 | 0.00 | 0.00 | 39 | 1013.0 |
| 20260503171003 | 12 | 263 | 4.8 | 14.5 | 0.00 | 0.00 | 0.00 | 43 | 1013.0 |
| 20260503170508 | 11 | 303 | 4.8 | 14.5 | 0.00 | 0.00 | 0.00 | 42 | 1013.2 |
| 20260503151006 | 9 | 211 | 3.2 | 17.7 | 0.00 | 0.00 | 0.00 | 42 | 1013.8 |
| 20260503150507 | 8 | 346 | 3.2 | 9.7 | 0.00 | 0.00 | 0.00 | 46 | 1013.8 |
| 20260503131006 | 6 | 261 | 1.6 | 11.3 | 0.00 | 0.00 | 0.00 | 62 | 1014.3 |
| 20260503130503 | 6 | 278 | 1.6 | 11.3 | 0.00 | 0.00 | 0.00 | 61 | 1014.3 |
| 20260503110505 | 2 | 261 | 0.0 | 3.2 | 0.00 | 0.00 | 0.00 | 71 | 1013.7 |